Manhattan, KS

8:50 AM CDT on May 28, 2017 (GMT -0500)
Manhattan Regional

Weather History for KMHK - October, 2010

Change the Weather History Date:

Tuesday, October 19, 2010

  Actual Average Record
Temperature  
Mean Temperature 56 °F 54 °F  
Max Temperature 68 °F 67 °F 88 °F (2003)
Min Temperature 44 °F 41 °F 24 °F (2006)
Degree Days  
Heating Degree Days 9 11  
Month to date heating degree days 164  
Since 1 July heating degree days 234  
Cooling Degree Days 0 0  
Month to date cooling degree days 21  
Year to date cooling degree days 1358  
Growing Degree Days 6 (Base 50)    
Moisture  
Dew Point 36 °F    
Average Humidity 59    
Maximum Humidity 83    
Minimum Humidity 23    
Precipitation  
Precipitation 0.00 in 0.07 in 0.88 in (2005)
Month to date precipitation 1.47  
Year to date precipitation 29.18  
Sea Level Pressure  
Sea Level Pressure 30.05 in    
Wind  
Wind Speed 1 mph (SW)    
Max Wind Speed 5 mph    
Max Gust Speed -    
Visibility 10 miles    
Events      
T = Trace of Precipitation, MM = Missing Value Source: NWS Daily Summary

Daily Weather History Graph

Daily Weather History Graph

Search for Another Location

Airport or City:

Trip Planner

Search our weather history database for the weather conditions in past years. The results will help you decide how hot, cold, wet, or windy it might be!

Date:

Astronomy

Oct. 19, 2010 Rise Set
Actual Time 7:40 AM CDT 6:42 PM CDT
Civil Twilight 7:13 AM CDT 7:09 PM CDT
Nautical Twilight 6:42 AM CDT 7:40 PM CDT
Astronomical Twilight 6:11 AM CDT 8:11 PM CDT
Moon 4:50 PM CDT (10/19) 4:27 AM CDT (10/19)
Length of Visible Light 11h 55m
Length of Day
11h 01m
Waxing Gibbous, 90% of the Moon is Illuminated
Oct 19
Waxing Gibbous
Oct 22
Full
Oct 30
Last Quarter
Nov 5
New
Nov 13
First Quarter

Hourly Weather History & Observations

Time (CDT) Temp. Dew Point Humidity Pressure Visibility Wind Dir Wind Speed Gust Speed Precip Events Conditions
12:52 AM 46.9 °F 34.0 °F 61% 30.07 in 10.0 mi Calm Calm - N/A   Clear
1:52 AM 46.0 °F 36.0 °F 68% 30.07 in 10.0 mi Calm Calm - N/A   Clear
2:52 AM 48.0 °F 36.0 °F 63% 30.07 in 10.0 mi Calm Calm - N/A   Clear
3:52 AM 46.9 °F 39.0 °F 74% 30.07 in 10.0 mi Calm Calm - N/A   Clear
4:52 AM 44.1 °F 37.9 °F 79% 30.08 in 10.0 mi Calm Calm - N/A   Partly Cloudy
5:52 AM 44.1 °F 37.9 °F 79% 30.09 in 10.0 mi Calm Calm - N/A   Clear
6:52 AM 46.0 °F 39.9 °F 79% 30.09 in 10.0 mi Calm Calm - N/A   Scattered Clouds
7:52 AM 46.0 °F 41.0 °F 83% 30.09 in 10.0 mi Calm Calm - N/A   Overcast
8:52 AM 46.9 °F 42.1 °F 83% 30.11 in 10.0 mi Calm Calm - 0.00 in   Overcast
9:52 AM 50.0 °F 41.0 °F 71% 30.13 in 10.0 mi Calm Calm - N/A   Overcast
10:52 AM 54.0 °F 39.0 °F 57% 30.12 in 10.0 mi Calm Calm - N/A   Clear
11:52 AM 59.0 °F 39.0 °F 48% 30.11 in 10.0 mi Calm Calm - N/A   Clear
12:52 PM 63.0 °F 33.1 °F 33% 30.09 in 10.0 mi Calm Calm - N/A   Clear
2:52 PM 66.9 °F 33.1 °F 28% 30.02 in 10.0 mi West 3.5 mph - N/A   Clear
3:52 PM 68.0 °F 30.0 °F 24% 30.00 in 5.0 mi Variable 3.5 mph - N/A   Haze
4:52 PM 68.0 °F 28.9 °F 23% 29.99 in 9.0 mi Variable 3.5 mph - N/A   Smoke
5:52 PM 66.0 °F 30.9 °F 27% 29.98 in 10.0 mi SSW 4.6 mph - N/A   Clear
6:52 PM 57.9 °F 35.1 °F 42% 29.99 in 10.0 mi SW 4.6 mph - N/A   Clear
7:52 PM 52.0 °F 35.1 °F 53% 30.00 in 10.0 mi Calm Calm - N/A   Clear
8:52 PM 48.9 °F 37.0 °F 64% 30.00 in 10.0 mi Calm Calm - N/A   Clear
9:52 PM 44.1 °F 37.0 °F 76% 30.00 in 10.0 mi Calm Calm - N/A   Clear
10:52 PM 45.0 °F 37.0 °F 74% 30.00 in 10.0 mi Calm Calm - N/A   Clear
11:52 PM 44.1 °F 37.9 °F 79% 29.99 in 10.0 mi Calm Calm - N/A   Partly Cloudy